Regional Weather Roundup
Issued by NWS Goodland, KS

Home | Current Version | Previous Version | Graphics & Text | Print | Product List | Glossary On
Versions: 1 2 3 4 5 6 7 8 9 10 11 12 13 14 15 16 17 18 19 20 21 22 23 24 25 26 27 28 29 30 31 32 33 34 35 36 37 38 39 40 41 42 43 44 45 46 47 48 49 50
805
ASUS43 KGLD 070559
RWRGLD

GOODLAND FORECAST AREA HOURLY WEATHER ROUNDUP
NATIONAL WEATHER SERVICE GOODLAND KS
1100 PM MST TUE DEC 06 2016

...OFFICIAL OBSERVATIONS...

CITY           SKY/WX    TMP DP  RH WIND       PRES   REMARKS
GOODLAND KS    CLOUDY    24   2  38 E12       29.96F WCI  13
HILL CITY KS   CLOUDY    23  12  62 CALM      30.10R
IMPERIAL NEB   CLOUDY    22  18  85 N15       30.04F WCI   9
MCCOOK NEB     CLOUDY    24   9  52 E10       30.10R WCI  14
AKRON CO       LGT SNOW  19  14  81 E13       29.90F WCI   6
BURLINGTON CO  CLOUDY    25  -1  32 E12       29.93F WCI  14
LIMON CO       CLOUDY    16  10  77 E12       29.85F WCI   3
$$

...UNOFFICIAL OBSERVATIONS...

CITY           SKY/WX    TMP DP  RH WIND       PRES   REMARKS
COLBY KS       CLOUDY    25   7  46 NE9       30.03F
LENORA KS        N/A     25  32 100 MISG        N/A
NORTON KS      CLOUDY    25   9  50 E6        30.10S
SHARON SPRINGS   N/A     25   5  41 CALM        N/A
TRENTON NEB      N/A     24  32 100 E5          N/A
KIT CARSON CO    N/A     24   3  40 MISG        N/A
YUMA CO        FLURRIES  21  16  79 E10       29.96F WCI  10
$$




USA.gov is the U.S. government's official web portal to all federal, state and local government web resources and services.